Regional Weather Roundup
Issued by NWS

Home | Current Version | Previous Version | Graphics & Text | Print | Product List | Glossary On
Versions: 1 2 3 4 5 6 7 8 9 10 11 12 13 14 15 16 17 18 19 20 21 22 23 24 25 26 27 28 29 30 31 32 33 34 35 36 37 38 39 40 41 42 43 44 45 46 47 48 49 50
000
ASUS43 KDTX 171701
RWRMI
MICHIGAN HOURLY REGIONAL WEATHER ROUNDUP
NATIONAL WEATHER SERVICE DETROIT/PONTIAC MI
100 PM EDT THU APR 17 2014

NOTE: "FAIR" INDICATES FEW OR NO CLOUDS BELOW 12,000 FEET WITH NO
SIGNIFICANT WEATHER AND/OR OBSTRUCTION TO VISIBILITY.

MIZ047>049-052>055-059>063-066>070-074>076-081>083-171800-
SOUTHEAST LOWER MICHIGAN

CITY           SKY/WX    TMP DP  RH WIND       PRES   REMARKS
ADRIAN         SUNNY     57  32  38 S9        30.30F
ALMA           MOSUNNY   53  31  44 S9G16     30.24F
ANN ARBOR      SUNNY     56  30  37 S10       30.30F
BAD AXE        SUNNY     49  31  49 S10G22    30.30F
CARO           SUNNY     55  29  37 SE7G23    30.26F
DETROIT CITY   SUNNY     56  28  34 SE14      30.33
DETROIT        PTSUNNY   55  30  38 S9        30.32F
FLINT          SUNNY     58  30  34 S14G21    30.26F
GROSSE ILE     SUNNY     48  28  46 SE7       30.32F
HILLSDALE      SUNNY     57  29  34 S12       30.26F
HOWELL         SUNNY     56  28  33 SE16      30.26F

CITY           SKY/WX    TMP DP  RH WIND       PRES   REMARKS
JACKSON        SUNNY     57  28  33 S14G23    30.25F
LAMBERTVILLE   SUNNY     59  32  36 S9        30.31S
LANSING        SUNNY     56  27  32 S12G21    30.25F
LAPEER         FAIR      53  31  43 MISG      30.28F
MASON          SUNNY     55  30  37 SE13      30.25F
MONROE         SUNNY     55  30  38 SE6       30.31S
MT. CLEMENS    PTSUNNY   52  31  44 S12       30.33F
PONTIAC        PTSUNNY   53  26  35 SE14      30.29F
PORT HOPE        N/A     44  29  55 SE17G23   30.30F
PORT HURON     SUNNY     52  32  46 S13G21    30.35S
TRI CITIES     SUNNY     53  30  41 SE12      30.26F
TROY           SUNNY     54  27  35 S6        30.32F
SAGINAW HB     SUNNY     54  28  37 S10       30.26F
YPSILANTI      SUNNY     57  28  33 SE8       30.31F
$$
MIZ043>046-050>051-056>058-064>065-071>073-077>080-171800-
SOUTHWEST LOWER MICHIGAN

CITY           SKY/WX    TMP DP  RH WIND       PRES   REMARKS
BATTLE CREEK   SUNNY     57  29  34 S13       30.22F
BENTON HARBOR  SUNNY     59  32  36 S14       30.20S
BIG RAPIDS     CLOUDY    50  30  45 S9G20     30.19S
COLDWATER      SUNNY     58  27  30 S8G20     30.24F
FREMONT        PTSUNNY   53  27  37 S12       30.18F
HOLLAND        MOSUNNY   58  32  37 SW15      30.21S
GRAND RAPIDS   PTSUNNY   58  31  35 SW13      30.21F
IONIA          FAIR      56  28  33 S15G23    30.21F
KALAMAZOO      MOSUNNY   60  29  30 S14       30.21F
LUDINGTON      MOSUNNY   52  31  44 SW18G26   30.16S
MARSHALL       SUNNY     58  28  32 S12G21    30.23F
MOUNT PLEASANT PTSUNNY   50  32  49 SE10G18   30.23F
MUSKEGON       PTSUNNY   54  27  35 S20G31    30.19F
SOUTH HAVEN    SUNNY     59  30  32 S12G18    30.19F
$$
MIZ016>042-171800-
NORTHERN LOWER MICHIGAN

CITY           SKY/WX    TMP DP  RH WIND       PRES   REMARKS
ALPENA         SUNNY     41  28  60 SE17G26   30.30F
BEAVER ISLAND  CLOUDY    42  25  50 SE8G17    30.21F
BELLAIRE       CLOUDY    46  22  39 SE12      30.18F
CADILLAC       CLOUDY    44  28  54 SE12G17   30.17F
CHARLEVOIX     CLOUDY    47  24  41 SE12      30.21F
FRANKFORT      CLOUDY    44  26  49 SE13G18   30.16F
GAYLORD        PTSUNNY   45  23  42 SE13G21   30.20F
GRAYLING       PTSUNNY   48  22  37 SE10      30.21F
HARBOR SPRINGS CLOUDY    47  24  39 SE9       30.21F
HOUGHTON LAKE  CLOUDY    47  25  42 SE14G21   30.23F
MANISTEE       CLOUDY    48  27  43 S13G21    30.17F
OSCODA         SUNNY     43  30  59 SE12      30.30F
PELLSTON       PTSUNNY   48  24  39 E15       30.23F
ROGERS CITY    MOSUNNY   42  29  60 SE16      30.30F
TRAVERSE CITY  CLOUDY    44  24  45 SE8       30.18S
$$
MIZ007>008-015-171800-
EASTERN UPPER MICHIGAN

CITY           SKY/WX    TMP DP  RH WIND       PRES   REMARKS
KINROSS        MOSUNNY   36  28  75 E28       30.27F WCI  23
MACKINAC ISLAN CLOUDY    33  29  84 E17G28    30.26F WCI  22
NEWBERRY       PTSUNNY   35  28  74 SE17G25   30.22F WCI  25
S. S. MARIE    MOSUNNY   35  24  64 SE17G29   30.30F WCI  25
$$
MIZ004>006-011>014-085-171800-
CENTRAL UPPER MICHIGAN

CITY           SKY/WX    TMP DP  RH WIND       PRES   REMARKS
MANISTIQUE     LGT SNOW  33  31  92 SE10G17   30.21F VSB 3/4 WCI  25
ESCANABA       CLOUDY    32  28  86 E12       30.16F WCI  23
MENOMINEE      CLOUDY    37  30  75 SE9       30.14S WCI  31
SAWYER-GWINN   LGT SNOW  32  28  86 SE14      30.15F WCI  22
$$
MIZ001>003-009>011-084-171800-
WESTERN UPPER MICHIGAN

CITY           SKY/WX    TMP DP  RH WIND       PRES   REMARKS
IRON MOUNTAIN  CLOUDY    33  30  88 SE12      30.12R WCI  24
HOUGHTON       SNOW      31  28  89 E15G22    30.15F VSB 1/2 WCI  20
COPPER HARBOR    N/A     32  30  92 S9G18     30.19F WCI  24
IRONWOOD       CLOUDY    34  28  80 W8        30.10R WCI  27
$$

ABBREVIATIONS USED IN REMARKS
   TC - TEMPERATURE IN CELSIUS
  WCI - WIND CHILL INDEX
   HX - HEAT INDEX
  VSB - VISIBILITY




USA.gov is the U.S. government's official web portal to all federal, state and local government web resources and services.